�������l�o���
Date,Time,MP-1(��Sv/h),MP-2(��Sv/h),MP-3(��Sv/h),MP-4(��Sv/h),MP-5(��Sv/h),MP-6(��Sv/h),MP-7(��Sv/h),MP-8(��Sv/h),����,����(m/s),���J
2019/12/02,00:00,0.707,1.019,0.684,1.262,0.892,0.410,0.712,0.676,-,CALM,��
2019/12/02,00:10,0.709,1.019,0.684,1.262,0.892,0.409,0.713,0.676,��,2.3,��
2019/12/02,00:20,0.708,1.021,0.684,1.259,0.891,0.411,0.711,0.677,��,3.3,��
2019/12/02,00:30,0.707,1.020,0.684,1.259,0.889,0.409,0.713,0.677,��,5.2,��
2019/12/02,00:40,0.706,1.019,0.683,1.261,0.892,0.411,0.714,0.677,��쓌,5.2,��
2019/12/02,00:50,0.709,1.018,0.684,1.264,0.893,0.410,0.712,0.678,��,5.5,��
2019/12/02,01:00,0.706,1.018,0.687,1.261,0.891,0.409,0.712,0.675,��쓌,4.9,��
2019/12/02,01:10,0.709,1.017,0.683,1.263,0.891,0.411,0.713,0.676,��,5.8,��
2019/12/02,01:20,0.708,1.020,0.684,1.260,0.892,0.410,0.714,0.677,��,6.0,��
2019/12/02,01:30,0.710,1.018,0.685,1.259,0.891,0.410,0.713,0.676,��쐼,4.3,��
2019/12/02,01:40,0.709,1.016,0.684,1.260,0.891,0.409,0.713,0.677,��,5.8,��
2019/12/02,01:50,0.707,1.019,0.684,1.262,0.891,0.409,0.713,0.675,��,5.8,��
2019/12/02,02:00,0.708,1.018,0.684,1.262,0.889,0.410,0.713,0.677,��쐼,4.4,��
2019/12/02,02:10,0.710,1.019,0.683,1.262,0.890,0.411,0.713,0.676,��,3.6,��
2019/12/02,02:20,0.709,1.020,0.684,1.261,0.891,0.411,0.714,0.676,��쐼,2.8,��
2019/12/02,02:30,0.708,1.017,0.684,1.263,0.892,0.410,0.713,0.677,��쓌,2.4,��
2019/12/02,02:40,0.708,1.017,0.682,1.261,0.891,0.410,0.713,0.677,�쓌,2.4,��
2019/12/02,02:50,0.709,1.020,0.684,1.260,0.893,0.410,0.714,0.677,�쓌,1.9,��
2019/12/02,03:00,0.707,1.017,0.684,1.262,0.890,0.411,0.713,0.677,��쓌,2.0,��
2019/12/02,03:10,0.708,1.018,0.686,1.261,0.892,0.411,0.714,0.677,��쓌,2.1,��
2019/12/02,03:20,0.709,1.021,0.684,1.262,0.889,0.411,0.712,0.678,��쓌,2.3,��
2019/12/02,03:30,0.709,1.022,0.685,1.261,0.893,0.410,0.713,0.678,��쓌,2.4,��
2019/12/02,03:40,0.709,1.020,0.684,1.262,0.891,0.410,0.714,0.677,��쓌,2.2,��
2019/12/02,03:50,0.708,1.018,0.684,1.262,0.891,0.410,0.714,0.677,��쓌,2.4,��
2019/12/02,04:00,0.707,1.019,0.684,1.262,0.890,0.411,0.713,0.677,��쓌,2.5,��
2019/12/02,04:10,0.707,1.019,0.684,1.261,0.892,0.410,0.714,0.677,��쓌,3.8,��
2019/12/02,04:20,0.709,1.019,0.683,1.261,0.893,0.411,0.714,0.678,��쓌,5.2,��
2019/12/02,04:30,0.710,1.021,0.684,1.263,0.892,0.411,0.714,0.677,��쓌,6.3,��
2019/12/02,04:40,0.711,1.019,0.683,1.262,0.891,0.411,0.715,0.677,��쓌,6.3,��
2019/12/02,04:50,0.709,1.018,0.684,1.261,0.891,0.411,0.713,0.677,��쓌,6.6,��
2019/12/02,05:00,0.708,1.020,0.685,1.260,0.893,0.411,0.714,0.677,��쓌,7.4,��
2019/12/02,05:10,0.708,1.020,0.682,1.262,0.891,0.411,0.715,0.677,��,6.6,��
2019/12/02,05:20,0.709,1.018,0.683,1.263,0.892,0.410,0.714,0.677,��,5.2,��
2019/12/02,05:30,0.709,1.018,0.685,1.262,0.890,0.410,0.714,0.677,��,4.6,��
2019/12/02,05:40,0.712,1.019,0.685,1.262,0.891,0.411,0.713,0.677,��,5.6,��
2019/12/02,05:50,0.711,1.018,0.684,1.262,0.893,0.410,0.714,0.679,��,5.6,��
2019/12/02,06:00,0.709,1.019,0.686,1.261,0.891,0.409,0.715,0.677,��쓌,4.9,��
2019/12/02,06:10,0.708,1.017,0.685,1.261,0.892,0.410,0.714,0.678,��쓌,5.0,��
2019/12/02,06:20,0.710,1.020,0.685,1.263,0.892,0.411,0.715,0.677,��,4.9,��
2019/12/02,06:30,0.711,1.019,0.686,1.261,0.892,0.410,0.717,0.678,��,6.0,��
2019/12/02,06:40,0.709,1.019,0.685,1.262,0.893,0.411,0.715,0.678,��,6.9,��
2019/12/02,06:50,0.710,1.021,0.685,1.263,0.892,0.411,0.715,0.678,��,8.0,��
2019/12/02,07:00,0.712,1.018,0.685,1.261,0.891,0.411,0.713,0.678,��,8.3,��
2019/12/02,07:10,0.710,1.020,0.685,1.262,0.892,0.410,0.715,0.678,��,7.7,��
2019/12/02,07:20,0.712,1.020,0.685,1.266,0.890,0.412,0.715,0.677,��,8.5,��
2019/12/02,07:30,0.711,1.019,0.684,1.262,0.890,0.411,0.716,0.679,��,7.2,��
2019/12/02,07:40,0.712,1.021,0.686,1.263,0.891,0.413,0.716,0.677,��,8.5,��
2019/12/02,07:50,0.711,1.021,0.685,1.265,0.893,0.410,0.715,0.677,��,8.6,��
2019/12/02,08:00,0.710,1.018,0.683,1.263,0.893,0.411,0.714,0.678,��,8.0,��
2019/12/02,08:10,0.712,1.020,0.687,1.261,0.894,0.412,0.714,0.677,��,7.8,��
2019/12/02,08:20,0.711,1.021,0.685,1.261,0.894,0.413,0.714,0.678,��,7.5,��
2019/12/02,08:30,0.711,1.019,0.685,1.262,0.896,0.411,0.715,0.680,��쐼,7.1,��
2019/12/02,08:40,0.712,1.020,0.686,1.262,0.894,0.412,0.716,0.677,��쐼,8.2,��
2019/12/02,08:50,0.713,1.020,0.688,1.261,0.893,0.411,0.716,0.678,��쐼,8.3,��
2019/12/02,09:00,0.713,1.020,0.686,1.263,0.892,0.411,0.715,0.681,��쐼,7.4,��
2019/12/02,09:10,0.714,1.019,0.687,1.263,0.893,0.414,0.714,0.678,��쐼,7.4,��
2019/12/02,09:20,0.714,1.020,0.687,1.260,0.892,0.413,0.713,0.679,��,5.3,��
2019/12/02,09:30,0.712,1.017,0.687,1.262,0.893,0.411,0.714,0.680,��쐼,7.1,��
2019/12/02,09:40,0.714,1.017,0.686,1.265,0.891,0.412,0.715,0.680,��쐼,6.9,�L
2019/12/02,09:50,0.713,1.018,0.687,1.263,0.890,0.411,0.716,0.679,��,6.4,�L
2019/12/02,10:00,0.712,1.018,0.687,1.262,0.890,0.411,0.716,0.678,��,7.2,��
2019/12/02,10:10,0.711,1.016,0.683,1.265,0.890,0.412,0.715,0.677,��,8.0,��
2019/12/02,10:20,0.713,1.014,0.685,1.264,0.892,0.412,0.715,0.678,��,8.6,��
2019/12/02,10:30,0.713,1.015,0.686,1.263,0.889,0.412,0.716,0.676,��,10.2,�L
2019/12/02,10:40,0.714,1.019,0.687,1.262,0.892,0.411,0.716,0.676,��쐼,7.7,�L
2019/12/02,10:50,0.713,1.017,0.685,1.264,0.891,0.414,0.716,0.677,��,10.1,�L
2019/12/02,11:00,0.711,1.017,0.686,1.262,0.892,0.414,0.716,0.678,��,12.6,��
2019/12/02,11:10,0.714,1.020,0.683,1.262,0.891,0.414,0.715,0.678,��,12.3,�L
2019/12/02,11:20,0.713,1.017,0.682,1.264,0.890,0.413,0.717,0.676,��,9.7,�L
2019/12/02,11:30,0.711,1.017,0.687,1.265,0.889,0.412,0.716,0.677,��,10.8,�L
2019/12/02,11:40,0.710,1.016,0.684,1.265,0.892,0.413,0.715,0.676,��,9.9,��
2019/12/02,11:50,0.712,1.019,0.685,1.266,0.890,0.413,0.714,0.677,��,11.3,�L
2019/12/02,12:00,0.713,1.016,0.688,1.264,0.891,0.413,0.715,0.676,��,11.1,�L
2019/12/02,12:10,0.714,1.018,0.686,1.264,0.893,0.414,0.715,0.676,��,10.7,��
2019/12/02,12:20,0.712,1.018,0.687,1.263,0.891,0.413,0.716,0.677,��,11.9,�L
2019/12/02,12:30,0.712,1.021,0.689,1.265,0.891,0.413,0.715,0.676,��,10.2,�L
2019/12/02,12:40,0.713,1.020,0.687,1.264,0.891,0.414,0.718,0.677,��,10.4,��
2019/12/02,12:50,0.713,1.021,0.686,1.266,0.891,0.415,0.714,0.676,��,8.8,�L
2019/12/02,13:00,0.712,1.019,0.685,1.265,0.891,0.415,0.716,0.676,��,8.0,�L
2019/12/02,13:10,0.712,1.019,0.686,1.266,0.891,0.415,0.716,0.676,��,9.9,�L
2019/12/02,13:20,0.714,1.023,0.685,1.265,0.891,0.414,0.715,0.675,��,6.9,�L
2019/12/02,13:30,0.713,1.020,0.685,1.264,0.891,0.414,0.716,0.675,��,8.6,�L
2019/12/02,13:40,0.716,1.022,0.686,1.265,0.890,0.414,0.718,0.676,��,8.0,�L
2019/12/02,13:50,0.717,1.022,0.686,1.265,0.892,0.414,0.715,0.676,��,8.3,��
2019/12/02,14:00,0.714,1.020,0.683,1.265,0.893,0.415,0.716,0.678,��,8.3,��
2019/12/02,14:10,0.713,1.018,0.684,1.265,0.893,0.414,0.716,0.675,��,10.4,��
2019/12/02,14:20,0.713,1.020,0.688,1.265,0.890,0.415,0.716,0.678,��쓌,10.2,��
2019/12/02,14:30,0.711,1.019,0.687,1.266,0.893,0.415,0.717,0.676,��쓌,11.3,�L
2019/12/02,14:40,0.713,1.020,0.688,1.264,0.890,0.415,0.716,0.675,��,10.5,�L
2019/12/02,14:50,0.712,1.019,0.686,1.264,0.891,0.415,0.717,0.675,��,10.8,�L
2019/12/02,15:00,0.714,1.020,0.685,1.265,0.889,0.415,0.715,0.676,��,11.6,�L
2019/12/02,15:10,0.712,1.022,0.684,1.264,0.891,0.414,0.716,0.676,��쓌,10.5,�L
2019/12/02,15:20,0.714,1.020,0.688,1.263,0.889,0.415,0.717,0.676,��,10.1,�L
2019/12/02,15:30,0.712,1.021,0.687,1.267,0.891,0.415,0.715,0.678,��,8.5,�L
2019/12/02,15:40,0.713,1.020,0.688,1.270,0.892,0.417,0.715,0.677,��쐼,7.1,�L
2019/12/02,15:50,0.711,1.019,0.686,1.270,0.888,0.415,0.716,0.678,��쐼,6.6,�L
2019/12/02,16:00,0.713,1.022,0.686,1.268,0.891,0.416,0.714,0.676,��쐼,5.0,�L
2019/12/02,16:10,0.712,1.018,0.687,1.266,0.888,0.417,0.715,0.677,�쐼,5.2,�L
2019/12/02,16:20,0.712,1.020,0.686,1.267,0.887,0.415,0.713,0.677,���쐼,7.4,�L
2019/12/02,16:30,0.713,1.021,0.687,1.267,0.886,0.416,0.716,0.676,�쐼,6.9,�L
2019/12/02,16:40,0.710,1.019,0.684,1.266,0.886,0.415,0.715,0.675,���쐼,8.0,�L
2019/12/02,16:50,0.711,1.021,0.686,1.267,0.888,0.416,0.714,0.674,��,3.3,��
2019/12/02,17:00,0.714,1.021,0.686,1.267,0.887,0.414,0.715,0.674,���k��,2.5,��
2019/12/02,17:10,0.711,1.019,0.684,1.267,0.888,0.416,0.715,0.676,�k��,2.1,��
2019/12/02,17:20,0.713,1.022,0.687,1.267,0.889,0.417,0.714,0.678,�k�k��,2.9,��
2019/12/02,17:30,0.712,1.022,0.686,1.266,0.891,0.415,0.714,0.676,�k�k��,5.5,��
2019/12/02,17:40,0.712,1.018,0.685,1.269,0.890,0.415,0.714,0.677,�k�k��,6.0,��
2019/12/02,17:50,0.712,1.020,0.685,1.268,0.890,0.416,0.715,0.678,�k��,6.9,��
2019/12/02,18:00,0.712,1.019,0.686,1.268,0.892,0.414,0.716,0.677,�k��,6.9,��
2019/12/02,18:10,0.711,1.019,0.684,1.266,0.892,0.414,0.714,0.676,�k��,6.3,��
2019/12/02,18:20,0.712,1.019,0.687,1.268,0.890,0.415,0.714,0.678,���k��,7.4,��
2019/12/02,18:30,0.713,1.018,0.685,1.270,0.891,0.413,0.717,0.678,���k��,8.9,��
2019/12/02,18:40,0.712,1.019,0.686,1.268,0.889,0.413,0.714,0.678,���k��,7.7,��
2019/12/02,18:50,0.712,1.018,0.687,1.267,0.891,0.413,0.713,0.679,���k��,6.1,��
2019/12/02,19:00,0.712,1.021,0.685,1.270,0.891,0.413,0.714,0.676,���k��,5.8,��
2019/12/02,19:10,0.712,1.018,0.686,1.271,0.891,0.414,0.713,0.678,�k��,4.0,��
2019/12/02,19:20,0.710,1.019,0.685,1.269,0.890,0.411,0.713,0.677,�k��,3.6,��
2019/12/02,19:30,0.711,1.019,0.686,1.268,0.890,0.412,0.715,0.677,�k��,6.0,��
2019/12/02,19:40,0.710,1.019,0.686,1.268,0.890,0.414,0.715,0.678,�k��,5.7,��
2019/12/02,19:50,0.712,1.019,0.686,1.269,0.891,0.411,0.717,0.677,�k�k��,7.7,��
2019/12/02,20:00,0.711,1.018,0.686,1.268,0.890,0.412,0.715,0.678,�k�k��,7.5,��
2019/12/02,20:10,0.712,1.019,0.686,1.269,0.889,0.411,0.716,0.678,�k�k��,6.4,��
2019/12/02,20:20,0.713,1.021,0.686,1.270,0.893,0.415,0.716,0.679,�k�k��,2.6,��
2019/12/02,20:30,0.711,1.019,0.685,1.271,0.891,0.413,0.715,0.679,�k��,4.6,��
2019/12/02,20:40,0.711,1.020,0.684,1.270,0.890,0.412,0.715,0.680,�k��,8.2,��
2019/12/02,20:50,0.713,1.020,0.686,1.273,0.893,0.412,0.715,0.678,���k��,8.6,��
2019/12/02,21:00,0.714,1.020,0.686,1.273,0.891,0.412,0.716,0.677,���k��,9.6,��
2019/12/02,21:10,0.712,1.020,0.686,1.271,0.892,0.412,0.714,0.678,���k��,7.5,��
2019/12/02,21:20,0.714,1.020,0.685,1.270,0.895,0.412,0.715,0.678,�k��,7.7,��
2019/12/02,21:30,0.712,1.018,0.688,1.273,0.893,0.411,0.715,0.678,�k��,4.7,��
2019/12/02,21:40,0.711,1.020,0.687,1.272,0.892,0.411,0.714,0.678,�k��,4.6,��
2019/12/02,21:50,0.712,1.021,0.687,1.271,0.895,0.413,0.713,0.679,���k��,8.2,��
2019/12/02,22:00,0.712,1.019,0.686,1.270,0.895,0.412,0.715,0.680,���k��,8.3,��
2019/12/02,22:10,0.714,1.022,0.686,1.274,0.893,0.411,0.716,0.678,���k��,8.9,��
2019/12/02,22:20,0.712,1.021,0.687,1.272,0.892,0.413,0.715,0.678,�k��,8.5,�L
2019/12/02,22:30,0.712,1.020,0.686,1.270,0.892,0.413,0.714,0.678,�k��,4.9,�L
2019/12/02,22:40,0.712,1.020,0.687,1.272,0.894,0.412,0.715,0.679,�k��,4.4,�L
2019/12/02,22:50,0.713,1.019,0.687,1.270,0.891,0.412,0.715,0.679,�k��,2.5,�L
2019/12/02,23:00,0.713,1.020,0.689,1.272,0.891,0.414,0.714,0.680,���k��,1.7,�L
2019/12/02,23:10,0.714,1.016,0.686,1.272,0.890,0.415,0.714,0.678,�k��,1.6,�L
2019/12/02,23:20,0.712,1.017,0.688,1.272,0.890,0.412,0.715,0.678,���k��,1.9,��
2019/12/02,23:30,0.711,1.016,0.688,1.270,0.893,0.413,0.716,0.680,�k��,1.6,��
2019/12/02,23:40,0.713,1.014,0.687,1.270,0.890,0.413,0.718,0.679,�k�k��,1.2,��
2019/12/02,23:50,0.711,1.014,0.687,1.269,0.890,0.413,0.715,0.680,�k�k��,1.2,��
